Time,TemperatureF,DewpointF,PressureIn,WindDirection,WindDirectionDegrees,WindSpeedMPH,WindSpeedGustMPH,Humidity,HourlyPrecipIn,Conditions,Clouds,dailyrainin,SoftwareType,DateUTC
2013-01-02 00:02:00,18.0,16.0,-100.00,SSW,205,12.0,17.0,90,0.00,,,0.00,,2013-01-02 06:02:00,
2013-01-02 00:12:00,17.0,16.0,-100.00,SSW,195,11.0,15.0,91,0.00,,,0.00,,2013-01-02 06:12:00,
2013-01-02 00:22:00,17.0,14.0,-100.00,SSW,200,10.0,13.0,91,0.00,,,0.00,,2013-01-02 06:22:00,
2013-01-02 00:32:00,17.0,14.0,-100.00,SSW,200,8.0,12.0,92,0.00,,,0.00,,2013-01-02 06:32:00,
2013-01-02 00:42:00,15.0,14.0,-100.00,South,190,11.0,12.0,92,0.00,,,0.00,,2013-01-02 06:42:00,
2013-01-02 00:52:00,15.0,14.0,-100.00,SSW,195,11.0,12.0,92,0.00,,,0.00,,2013-01-02 06:52:00,
2013-01-02 01:02:00,15.0,12.0,-100.00,SSW,200,9.0,11.0,92,0.00,,,0.00,,2013-01-02 07:02:00,
2013-01-02 01:12:00,14.0,12.0,-100.00,SSW,195,10.0,11.0,92,0.00,,,0.00,,2013-01-02 07:12:00,
2013-01-02 01:22:00,14.0,12.0,-100.00,South,185,8.0,10.0,92,0.00,,,0.00,,2013-01-02 07:22:00,
2013-01-02 01:32:00,13.0,10.0,-100.00,SSW,195,7.0,10.0,92,0.00,,,0.00,,2013-01-02 07:32:00,
2013-01-02 01:42:00,13.0,10.0,-100.00,South,185,9.0,10.0,92,0.00,,,0.00,,2013-01-02 07:42:00,
2013-01-02 01:52:00,13.0,10.0,-100.00,South,185,8.0,11.0,92,0.00,,,0.00,,2013-01-02 07:52:00,
2013-01-02 02:02:00,12.0,10.0,-100.00,South,175,8.0,10.0,92,0.00,,,0.00,,2013-01-02 08:02:00,
2013-01-02 02:11:00,12.0,10.0,-100.00,South,175,9.0,11.0,92,0.00,,,0.00,,2013-01-02 08:11:00,
2013-01-02 02:22:00,12.0,10.0,-100.00,South,185,6.0,9.0,92,0.00,,,0.00,,2013-01-02 08:22:00,
2013-01-02 02:32:00,12.0,10.0,-100.00,South,175,7.0,9.0,92,0.00,,,0.00,,2013-01-02 08:32:00,
2013-01-02 02:42:00,11.0,9.0,-100.00,South,170,9.0,9.0,92,0.00,,,0.00,,2013-01-02 08:42:00,
2013-01-02 02:52:00,11.0,9.0,-100.00,SSE,165,9.0,11.0,92,0.00,,,0.00,,2013-01-02 08:52:00,
2013-01-02 03:02:00,11.0,9.0,-100.00,South,170,9.0,10.0,92,0.00,,,0.00,,2013-01-02 09:02:00,
2013-01-02 03:12:00,11.0,10.0,-100.00,South,175,8.0,11.0,92,0.00,,,0.00,,2013-01-02 09:12:00,
2013-01-02 03:22:00,12.0,10.0,-100.00,South,180,9.0,11.0,92,0.00,,,0.00,,2013-01-02 09:22:00,
2013-01-02 03:32:00,11.0,9.0,-100.00,South,180,9.0,10.0,92,0.00,,,0.00,,2013-01-02 09:32:00,
2013-01-02 03:43:00,11.0,9.0,-100.00,South,175,8.0,10.0,92,0.00,,,0.00,,2013-01-02 09:43:00,
2013-01-02 03:52:00,11.0,9.0,-100.00,South,175,7.0,9.0,91,0.00,,,0.00,,2013-01-02 09:52:00,
2013-01-02 04:02:00,11.0,9.0,-100.00,South,180,7.0,10.0,91,0.00,,,0.00,,2013-01-02 10:02:00,
2013-01-02 04:12:00,11.0,9.0,-100.00,South,170,9.0,11.0,91,0.00,,,0.00,,2013-01-02 10:12:00,
2013-01-02 04:22:00,11.0,9.0,-100.00,South,170,7.0,9.0,91,0.00,,,0.00,,2013-01-02 10:22:00,
2013-01-02 04:32:00,11.0,9.0,-100.00,South,170,9.0,10.0,91,0.00,,,0.00,,2013-01-02 10:32:00,
2013-01-02 04:42:00,11.0,9.0,-100.00,SSE,165,9.0,11.0,91,0.00,,,0.00,,2013-01-02 10:42:00,
2013-01-02 04:52:00,10.0,9.0,-100.00,South,170,8.0,11.0,91,0.00,,,0.00,,2013-01-02 10:52:00,
2013-01-02 05:02:00,11.0,9.0,-100.00,South,185,7.0,9.0,91,0.00,,,0.00,,2013-01-02 11:02:00,
2013-01-02 05:12:00,11.0,9.0,-100.00,South,180,8.0,10.0,91,0.00,,,0.00,,2013-01-02 11:12:00,
2013-01-02 05:22:00,11.0,9.0,-100.00,South,175,8.0,9.0,91,0.00,,,0.00,,2013-01-02 11:22:00,
2013-01-02 05:32:00,11.0,9.0,-100.00,South,185,7.0,9.0,91,0.00,,,0.00,,2013-01-02 11:32:00,
2013-01-02 05:42:00,11.0,9.0,-100.00,South,180,7.0,8.0,91,0.00,,,0.00,,2013-01-02 11:42:00,
2013-01-02 05:52:00,12.0,10.0,-100.00,South,190,6.0,8.0,91,0.00,,,0.00,,2013-01-02 11:52:00,
2013-01-02 06:02:00,12.0,10.0,-100.00,South,185,6.0,7.0,91,0.00,,,0.00,,2013-01-02 12:02:00,
2013-01-02 06:12:00,12.0,10.0,-100.00,SSW,200,6.0,6.0,91,0.00,,,0.00,,2013-01-02 12:12:00,
2013-01-02 06:22:00,12.0,10.0,-100.00,South,175,6.0,7.0,91,0.00,,,0.00,,2013-01-02 12:22:00,
2013-01-02 06:32:00,12.0,10.0,-100.00,South,190,5.0,7.0,91,0.00,,,0.00,,2013-01-02 12:32:00,
2013-01-02 06:42:00,13.0,10.0,-100.00,South,180,5.0,8.0,91,0.00,,,0.00,,2013-01-02 12:42:00,
2013-01-02 06:52:00,13.0,10.0,-100.00,South,190,6.0,7.0,91,0.00,,,0.00,,2013-01-02 12:52:00,
2013-01-02 07:02:00,13.0,10.0,-100.00,South,185,5.0,6.0,91,0.00,,,0.00,,2013-01-02 13:02:00,
2013-01-02 07:12:00,13.0,10.0,-100.00,South,190,5.0,6.0,91,0.00,,,0.00,,2013-01-02 13:12:00,
2013-01-02 07:22:00,13.0,10.0,-100.00,South,185,6.0,6.0,91,0.00,,,0.00,,2013-01-02 13:22:00,
2013-01-02 07:32:00,13.0,10.0,-100.00,South,185,6.0,7.0,91,0.00,,,0.00,,2013-01-02 13:32:00,
2013-01-02 07:42:00,13.0,10.0,-100.00,South,180,6.0,7.0,91,0.00,,,0.00,,2013-01-02 13:42:00,
2013-01-02 07:52:00,13.0,10.0,-100.00,South,175,6.0,7.0,91,0.00,,,0.00,,2013-01-02 13:52:00,
2013-01-02 08:02:00,13.0,10.0,-100.00,South,180,6.0,7.0,91,0.00,,,0.00,,2013-01-02 14:02:00,
2013-01-02 08:12:00,13.0,10.0,-100.00,South,180,7.0,7.0,91,0.00,,,0.00,,2013-01-02 14:12:00,
2013-01-02 08:22:00,14.0,12.0,-100.00,South,170,6.0,7.0,91,0.00,,,0.00,,2013-01-02 14:22:00,
2013-01-02 08:33:00,14.0,12.0,-100.00,South,170,7.0,8.0,91,0.00,,,0.00,,2013-01-02 14:33:00,
2013-01-02 08:42:00,14.0,12.0,-100.00,South,175,7.0,8.0,91,0.00,,,0.00,,2013-01-02 14:42:00,
2013-01-02 08:53:00,15.0,12.0,-100.00,South,175,7.0,8.0,91,0.00,,,0.00,,2013-01-02 14:53:00,
2013-01-02 09:02:00,15.0,12.0,-100.00,South,175,7.0,9.0,92,0.00,,,0.00,,2013-01-02 15:02:00,
2013-01-02 09:12:00,15.0,12.0,-100.00,South,175,7.0,9.0,92,0.00,,,0.00,,2013-01-02 15:12:00,
2013-01-02 09:22:00,15.0,12.0,-100.00,South,175,8.0,9.0,92,0.00,,,0.00,,2013-01-02 15:22:00,
2013-01-02 09:33:00,15.0,12.0,-100.00,South,175,8.0,9.0,92,0.00,,,0.00,,2013-01-02 15:33:00,
2013-01-02 09:42:00,15.0,12.0,-100.00,South,175,7.0,10.0,92,0.00,,,0.00,,2013-01-02 15:42:00,
2013-01-02 09:52:00,15.0,14.0,-100.00,South,175,7.0,10.0,92,0.00,,,0.00,,2013-01-02 15:52:00,
2013-01-02 10:03:00,15.0,14.0,-100.00,South,170,8.0,10.0,92,0.00,,,0.00,,2013-01-02 16:03:00,
2013-01-02 10:12:00,16.0,14.0,-100.00,South,175,7.0,9.0,92,0.00,,,0.00,,2013-01-02 16:12:00,
2013-01-02 10:22:00,17.0,14.0,-100.00,South,175,7.0,9.0,92,0.00,,,0.00,,2013-01-02 16:22:00,
2013-01-02 10:33:00,17.0,16.0,-100.00,South,175,7.0,9.0,92,0.00,,,0.00,,2013-01-02 16:33:00,
2013-01-02 10:42:00,17.0,16.0,-100.00,South,185,6.0,9.0,92,0.00,,,0.00,,2013-01-02 16:42:00,
2013-01-02 10:53:00,18.0,16.0,-100.00,South,180,6.0,9.0,92,0.00,,,0.00,,2013-01-02 16:53:00,
2013-01-02 11:03:00,18.0,16.0,-100.00,SSW,195,6.0,7.0,93,0.00,,,0.00,,2013-01-02 17:03:00,
2013-01-02 11:12:00,18.0,16.0,-100.00,South,190,7.0,7.0,93,0.00,,,0.00,,2013-01-02 17:12:00,
2013-01-02 11:23:00,19.0,18.0,-100.00,SSW,195,6.0,7.0,93,0.00,,,0.00,,2013-01-02 17:23:00,
2013-01-02 11:33:00,19.0,18.0,-100.00,South,190,5.0,6.0,93,0.00,,,0.00,,2013-01-02 17:33:00,
2013-01-02 11:43:00,19.0,18.0,-100.00,SSW,205,4.0,6.0,93,0.00,,,0.00,,2013-01-02 17:43:00,
2013-01-02 11:53:00,20.0,18.0,-100.00,SW,220,2.0,4.0,93,0.00,,,0.00,,2013-01-02 17:53:00,
2013-01-02 12:02:00,20.0,19.0,-100.00,WSW,250,3.0,5.0,93,0.00,,,0.00,,2013-01-02 18:02:00,
2013-01-02 12:12:00,21.0,19.0,-100.00,WSW,250,4.0,5.0,93,0.00,,,0.00,,2013-01-02 18:12:00,
2013-01-02 12:22:00,22.0,21.0,-100.00,West,275,3.0,6.0,93,0.00,,,0.00,,2013-01-02 18:22:00,
2013-01-02 12:33:00,23.0,21.0,-100.00,WSW,255,2.0,4.0,93,0.00,,,0.00,,2013-01-02 18:33:00,
2013-01-02 12:42:00,24.0,23.0,-100.00,WNW,290,4.0,6.0,93,0.00,,,0.00,,2013-01-02 18:42:00,
2013-01-02 12:53:00,25.0,23.0,-100.00,WNW,285,6.0,7.0,93,0.00,,,0.00,,2013-01-02 18:53:00,
2013-01-02 13:03:00,24.0,23.0,-100.00,WNW,290,6.0,7.0,93,0.00,,,0.00,,2013-01-02 19:03:00,
2013-01-02 13:12:00,25.0,23.0,-100.00,WNW,295,6.0,7.0,93,0.00,,,0.00,,2013-01-02 19:12:00,
2013-01-02 13:22:00,25.0,23.0,-100.00,NW,310,5.0,7.0,93,0.00,,,0.00,,2013-01-02 19:22:00,
2013-01-02 13:32:00,25.0,23.0,-100.00,NW,305,5.0,9.0,92,0.00,,,0.00,,2013-01-02 19:32:00,
2013-01-02 13:42:00,25.0,23.0,-100.00,NW,320,4.0,9.0,92,0.00,,,0.00,,2013-01-02 19:42:00,
2013-01-02 13:52:00,26.0,25.0,-100.00,NW,310,5.0,7.0,92,0.00,,,0.00,,2013-01-02 19:52:00,
2013-01-02 14:03:00,26.0,25.0,-100.00,NW,315,4.0,7.0,92,0.00,,,0.00,,2013-01-02 20:03:00,
2013-01-02 14:12:00,26.0,25.0,-100.00,NW,310,4.0,5.0,91,0.00,,,0.00,,2013-01-02 20:12:00,
2013-01-02 14:22:00,26.0,25.0,-100.00,NW,315,4.0,6.0,91,0.00,,,0.00,,2013-01-02 20:22:00,
2013-01-02 14:33:00,26.0,25.0,-100.00,NW,310,6.0,7.0,90,0.00,,,0.00,,2013-01-02 20:33:00,
2013-01-02 14:42:00,26.0,23.0,-100.00,NW,325,4.0,6.0,90,0.00,,,0.00,,2013-01-02 20:42:00,
2013-01-02 14:53:00,26.0,23.0,-100.00,NNW,330,5.0,7.0,89,0.00,,,0.00,,2013-01-02 20:53:00,
2013-01-02 15:03:00,26.0,23.0,-100.00,NW,320,11.0,16.0,88,0.00,,,0.00,,2013-01-02 21:03:00,
2013-01-02 15:12:00,26.0,23.0,-100.00,NW,310,16.0,20.0,87,0.00,,,0.00,,2013-01-02 21:12:00,
2013-01-02 15:22:00,25.0,21.0,-100.00,NW,315,17.0,23.0,88,0.00,,,0.00,,2013-01-02 21:22:00,
2013-01-02 15:32:00,24.0,21.0,-100.00,NW,325,17.0,22.0,89,0.00,,,0.00,,2013-01-02 21:32:00,
2013-01-02 15:42:00,24.0,21.0,-100.00,NW,320,18.0,25.0,87,0.00,,,0.00,,2013-01-02 21:42:00,
2013-01-02 15:52:00,23.0,19.0,-100.00,NW,320,20.0,23.0,86,0.00,,,0.00,,2013-01-02 21:52:00,
2013-01-02 16:03:00,23.0,19.0,-100.00,NW,325,12.0,21.0,86,0.00,,,0.00,,2013-01-02 22:03:00,
2013-01-02 16:12:00,23.0,19.0,-100.00,NW,325,12.0,18.0,86,0.00,,,0.00,,2013-01-02 22:12:00,
2013-01-02 16:22:00,23.0,19.0,-100.00,NW,325,14.0,17.0,86,0.00,,,0.00,,2013-01-02 22:22:00,
2013-01-02 16:32:00,22.0,19.0,-100.00,NW,320,12.0,20.0,86,0.00,,,0.00,,2013-01-02 22:32:00,
2013-01-02 16:42:00,22.0,19.0,-100.00,NW,320,12.0,19.0,86,0.00,,,0.00,,2013-01-02 22:42:00,
2013-01-02 16:52:00,22.0,19.0,-100.00,NNW,330,11.0,16.0,86,0.00,,,0.00,,2013-01-02 22:52:00,
2013-01-02 17:02:00,22.0,19.0,-100.00,NW,320,12.0,18.0,86,0.00,,,0.00,,2013-01-02 23:02:00,
2013-01-02 17:12:00,22.0,18.0,-100.00,NW,320,11.0,16.0,86,0.00,,,0.00,,2013-01-02 23:12:00,
2013-01-02 17:22:00,21.0,18.0,-100.00,NW,320,17.0,20.0,85,0.00,,,0.00,,2013-01-02 23:22:00,
2013-01-02 17:33:00,21.0,16.0,-100.00,NW,315,14.0,18.0,83,0.00,,,0.00,,2013-01-02 23:33:00,
2013-01-02 17:42:00,20.0,16.0,-100.00,NW,325,16.0,18.0,82,0.00,,,0.00,,2013-01-02 23:42:00,
2013-01-02 17:52:00,20.0,16.0,-100.00,NW,310,12.0,20.0,82,0.00,,,0.00,,2013-01-02 23:52:00,
2013-01-02 18:02:00,19.0,14.0,-100.00,NW,310,13.0,19.0,81,0.00,,,0.00,,2013-01-03 00:02:00,
2013-01-02 18:12:00,19.0,14.0,-100.00,NW,320,14.0,17.0,81,0.00,,,0.00,,2013-01-03 00:12:00,
2013-01-02 18:22:00,18.0,14.0,-100.00,NW,325,14.0,20.0,82,0.00,,,0.00,,2013-01-03 00:22:00,
2013-01-02 18:37:00,17.0,14.0,-100.00,NW,320,15.0,18.0,83,0.00,,,0.00,,2013-01-03 00:37:00,
2013-01-02 18:52:00,16.0,12.0,-100.00,NW,320,13.0,19.0,83,0.00,,,0.00,,2013-01-03 00:52:00,
2013-01-02 19:02:00,15.0,12.0,-100.00,NW,315,12.0,17.0,84,0.00,,,0.00,,2013-01-03 01:02:00,
2013-01-02 19:12:00,15.0,12.0,-100.00,NW,320,12.0,17.0,84,0.00,,,0.00,,2013-01-03 01:12:00,
2013-01-02 19:22:00,15.0,10.0,-100.00,NW,310,18.0,24.0,84,0.00,,,0.00,,2013-01-03 01:22:00,
2013-01-02 19:32:00,14.0,9.0,-100.00,NW,315,14.0,20.0,81,0.00,,,0.00,,2013-01-03 01:32:00,
2013-01-02 19:42:00,13.0,9.0,-100.00,NW,315,16.0,22.0,80,0.00,,,0.00,,2013-01-03 01:42:00,
2013-01-02 19:52:00,13.0,7.0,-100.00,NW,315,15.0,20.0,80,0.00,,,0.00,,2013-01-03 01:52:00,
2013-01-02 20:02:00,12.0,7.0,-100.00,NW,315,16.0,21.0,79,0.00,,,0.00,,2013-01-03 02:02:00,
2013-01-02 20:12:00,12.0,7.0,-100.00,NW,320,13.0,21.0,79,0.00,,,0.00,,2013-01-03 02:12:00,
2013-01-02 20:22:00,11.0,7.0,-100.00,NW,315,14.0,19.0,80,0.00,,,0.00,,2013-01-03 02:22:00,
2013-01-02 20:33:00,11.0,7.0,-100.00,NW,320,18.0,23.0,80,0.00,,,0.00,,2013-01-03 02:33:00,
2013-01-02 20:42:00,11.0,7.0,-100.00,NW,320,18.0,23.0,80,0.00,,,0.00,,2013-01-03 02:42:00,
2013-01-02 20:52:00,11.0,7.0,-100.00,NW,320,18.0,23.0,80,0.00,,,0.00,,2013-01-03 02:52:00,
2013-01-02 21:02:00,11.0,7.0,-100.00,NW,325,17.0,24.0,82,0.00,,,0.00,,2013-01-03 03:02:00,
2013-01-02 21:12:00,10.0,5.0,-100.00,NW,325,19.0,24.0,82,0.00,,,0.00,,2013-01-03 03:12:00,
2013-01-02 21:22:00,10.0,5.0,-100.00,NW,320,17.0,23.0,82,0.00,,,0.00,,2013-01-03 03:22:00,
2013-01-02 21:46:00,9.0,5.0,-100.00,NW,325,16.0,24.0,82,0.00,,,0.00,,2013-01-03 03:46:00,
2013-01-02 21:52:00,9.0,5.0,-100.00,NW,320,14.0,21.0,82,0.00,,,0.00,,2013-01-03 03:52:00,
2013-01-02 22:02:00,8.0,5.0,-100.00,NW,320,16.0,20.0,82,0.00,,,0.00,,2013-01-03 04:02:00,
2013-01-02 22:12:00,8.0,5.0,-100.00,NW,320,15.0,21.0,82,0.00,,,0.00,,2013-01-03 04:12:00,
2013-01-02 22:22:00,9.0,5.0,-100.00,NW,320,16.0,21.0,82,0.00,,,0.00,,2013-01-03 04:22:00,
2013-01-02 22:32:00,8.0,5.0,-100.00,NW,320,15.0,19.0,83,0.00,,,0.00,,2013-01-03 04:32:00,
2013-01-02 22:42:00,8.0,5.0,-100.00,NW,315,16.0,20.0,83,0.00,,,0.00,,2013-01-03 04:42:00,
2013-01-02 22:52:00,8.0,5.0,-100.00,NW,315,16.0,21.0,83,0.00,,,0.00,,2013-01-03 04:52:00,
2013-01-02 23:03:00,8.0,3.0,-100.00,NW,320,16.0,25.0,83,0.00,,,0.00,,2013-01-03 05:03:00,
2013-01-02 23:12:00,8.0,3.0,-100.00,NW,320,19.0,23.0,83,0.00,,,0.00,,2013-01-03 05:12:00,
2013-01-02 23:22:00,7.0,3.0,-100.00,NW,320,14.0,19.0,83,0.00,,,0.00,,2013-01-03 05:22:00,
2013-01-02 23:33:00,7.0,3.0,-100.00,NW,315,12.0,15.0,83,0.00,,,0.00,,2013-01-03 05:33:00,
2013-01-02 23:42:00,6.0,3.0,-100.00,NW,305,16.0,20.0,84,0.00,,,0.00,,2013-01-03 05:42:00,
2013-01-02 23:52:00,6.0,3.0,-100.00,NW,310,16.0,21.0,84,0.00,,,0.00,,2013-01-03 05:52:00,